Location: Bussy-Saint-Georges
(48.8410°N, 2.7017°E)
Time: 02:29:42
(UTC+00:00)

Cosmos 1602 Rocket - Pass Details

Date: 18 October 2021
Orbit: 603 x 634 km, 82.5° (Epoch: 30 November)

Event Time Altitude Azimuth Distance (km) Brightness Sun altitude
Rises 19:16:56 0° 348° (NNW) 2,900 7.3 -24.2°
Reaches altitude 10° 19:19:11 10° 346° (NNW) 1,985 6.5 -24.6°
Maximum altitude 19:23:32 69° 264° (W) 658 3.7 -25.3°
Enters shadow 19:23:54 65° 229° (SW) 674 3.7 -25.3°
